"Pseudo-MPEC" for RFD0043

Created 2023 Nov 30 7:22:06 UT using Find_Orb

Click here for an explanation of pseudo-MPECs

 
 Astrometry: 
     RFD0043*5C2023 11 11.34227405 20 06.170+20 23 38.44   ~BBBb 21.8 GVNEOCPU94
     RFD0043 5C2023 11 11.35364605 20 06.762+20 23 37.80   ~BBBb 21.2 GVNEOCPU94
     RFD0043 5C2023 11 11.36311905 20 07.340+20 23 38.49   ~BBBb 21.7 GVNEOCPU94

Station data:
(U94) iTelescope Observatory, Beryl Junction  (N37.737780 W113.697500)
   US/Utah.  Observer F. D. Romanov. 0.51-m f/4.5 Corrected Dall-Kirkham +
   CCD0.51-m f/6.8 astrograph + f/4.5 focal reducer + CCD.

Orbital elements:  RFD0043
   Perihelion 2024 Jan 22.96988 +/- 38 TT = 23:16:37 (JD 2460332.46988)
Epoch 2023 Nov 11.0 TT = JDT 2460259.5   Earth MOID: 0.0014   Ve: 0.0048
M 326.10187516 +/- 28               Ma: 0.0120                   AutoNEOCP
n   0.46454955 +/- 0.391            Peri.   95.10757 +/- 90
a   1.65113031 +/- 0.926            Node    76.80613 +/- 50
e   0.6756278 +/- 0.249             Incl.    1.93839 +/- 2.2
P   2.12/774.93d           H 22.65  G  0.15   U 12.1  SR
q 0.53558072 +/- 0.477    Q 2.76667991 +/- 40.3           (J2000 ecliptic)
From 3 observations 2023 Nov. 11 (30.0 min); mean residual 0".32
Residuals in arcseconds: 
231111 U94  .20+  .21+    231111 U94  .44-  .45-    231111 U94  .24+  .25+    

Ephemerides (geocentric):
Date (UTC) HH   RA             Dec           delta  r     elong  mag " sig PA
---- --------  ------------   ------------  ------ ------ -----  --- --------
2023 11 30 07  06 13 24.402   +19 49 43.90  .07462 1.0539 154.1 18.3  73d  76
2023 11 30 08  06 13 50.659   +19 49 14.08  .07412 1.0534 154.0 18.2  73d  76
2023 11 30 09  06 14 17.264   +19 48 43.64  .07361 1.0529 154.0 18.2  73d  76
2023 11 30 10  06 14 44.225   +19 48 12.53  .07311 1.0524 153.9 18.2  73d  76
2023 11 30 11  06 15 11.547   +19 47 40.76  .07261 1.0519 153.8 18.2  73d  76
2023 11 30 12  06 15 39.239   +19 47 08.29  .07210 1.0514 153.8 18.2  73d  76
2023 11 30 13  06 16 07.308   +19 46 35.12  .07160 1.0509 153.7 18.2  73d  76
2023 11 30 14  06 16 35.762   +19 46 01.21  .07110 1.0504 153.6 18.2  73d  76
2023 11 30 15  06 17 04.608   +19 45 26.55  .07060 1.0499 153.5 18.1  73d  76
2023 11 30 16  06 17 33.855   +19 44 51.12  .07010 1.0494 153.5 18.1  73d  76
2023 11 30 17  06 18 03.510   +19 44 14.90  .06960 1.0489 153.4 18.1  73d  76
2023 11 30 18  06 18 33.583   +19 43 37.85  .06910 1.0484 153.3 18.1  73d  76
2023 11 30 19  06 19 04.082   +19 42 59.96  .06860 1.0479 153.2 18.1  73d  76
2023 11 30 20  06 19 35.017   +19 42 21.21  .06810 1.0474 153.2 18.1  73d  76
2023 11 30 21  06 20 06.396   +19 41 41.56  .06760 1.0469 153.1 18.1  73d  76
2023 11 30 22  06 20 38.229   +19 41 00.99  .06710 1.0464 153.0 18.0  73d  76
2023 11 30 23  06 21 10.525   +19 40 19.47  .06660 1.0459 152.9 18.0  73d  76
2023 12 01 00  06 21 43.295   +19 39 36.98  .06610 1.0454 152.8 18.0  73d  76
2023 12 01 01  06 22 16.549   +19 38 53.48  .06560 1.0449 152.7 18.0  73d  76
2023 12 01 02  06 22 50.298   +19 38 08.94  .06511 1.0444 152.7 18.0  73d  76
2023 12 01 03  06 23 24.552   +19 37 23.33  .06461 1.0439 152.6 18.0  73d  76
2023 12 01 04  06 23 59.323   +19 36 36.63  .06411 1.0434 152.5 18.0  73d  76
2023 12 01 05  06 24 34.622   +19 35 48.78  .06361 1.0429 152.4 17.9  73d  76
2023 12 01 06  06 25 10.462   +19 34 59.76  .06312 1.0424 152.3 17.9  73d  76
2023 12 01 07  06 25 46.853   +19 34 09.54  .06262 1.0419 152.2 17.9  73d  76
2023 12 01 08  06 26 23.809   +19 33 18.06  .06213 1.0414 152.1 17.9  73d  76
2023 12 01 09  06 27 01.343   +19 32 25.30  .06163 1.0409 152.0 17.9  73d  76
2023 12 01 10  06 27 39.468   +19 31 31.21  .06114 1.0404 151.8 17.9  73d  76
2023 12 01 11  06 28 18.198   +19 30 35.75  .06065 1.0399 151.7 17.9  73d  76
2023 12 01 12  06 28 57.546   +19 29 38.87  .06015 1.0394 151.6 17.8  73d  76
2023 12 01 13  06 29 37.528   +19 28 40.52  .05966 1.0389 151.5 17.8  73d  76
2023 12 01 14  06 30 18.158   +19 27 40.67  .05917 1.0384 151.4 17.8  73d  76
2023 12 01 15  06 30 59.451   +19 26 39.25  .05868 1.0379 151.3 17.8  73d  76
2023 12 01 16  06 31 41.423   +19 25 36.22  .05819 1.0374 151.1 17.8  73d  76
2023 12 01 17  06 32 24.092   +19 24 31.51  .05769 1.0369 151.0 17.8  73d  76
2023 12 01 18  06 33 07.473   +19 23 25.09  .05720 1.0364 150.9 17.7  73d  76
2023 12 01 19  06 33 51.583   +19 22 16.87  .05672 1.0359 150.8 17.7  73d  76
2023 12 01 20  06 34 36.442   +19 21 06.81  .05623 1.0354 150.6 17.7  73d  76
2023 12 01 21  06 35 22.066   +19 19 54.84  .05574 1.0349 150.5 17.7  73d  76
2023 12 01 22  06 36 08.476   +19 18 40.89  .05525 1.0344 150.3 17.7  73d  76
2023 12 01 23  06 36 55.691   +19 17 24.90  .05476 1.0339 150.2 17.7  73d  76
2023 12 02 00  06 37 43.730   +19 16 06.78  .05428 1.0334 150.0 17.7  73d  76
2023 12 02 01  06 38 32.616   +19 14 46.48  .05379 1.0329 149.9 17.6  73d  76
2023 12 02 02  06 39 22.368   +19 13 23.90  .05331 1.0324 149.7 17.6  73d  76
2023 12 02 03  06 40 13.011   +19 11 58.96  .05282 1.0319 149.6 17.6  73d  76
2023 12 02 04  06 41 04.565   +19 10 31.58  .05234 1.0314 149.4 17.6  73d  76
2023 12 02 05  06 41 57.056   +19 09 01.68  .05185 1.0309 149.3 17.6  74d  76
2023 12 02 06  06 42 50.507   +19 07 29.14  .05137 1.0304 149.1 17.6  74d  76